Location: Anciles
(42.5833°N, 0.5167°E)
Time: 21:37:39
(UTC+00:00)

S3M - Pass Details

Date: 10 December 2019
Orbit: 948 x 1005 km, 83.0° (Epoch: 18 January)

Event Time Altitude Azimuth Distance (km) Brightness Sun altitude
Rises 19:11:49 0° 349° (N) 3,681 7.1 -29.9°
Reaches altitude 10° 19:14:22 10° 347° (NNW) 2,721 6.4 -30.4°
Maximum altitude 19:20:30 65° 267° (W) 1,053 4.2 -31.5°
Drops below altitude 10° 19:26:32 10° 187° (S) 2,672 6.4 -32.6°
Sets 19:29:01 0° 184° (S) 3,609 7.0 -33.1°
